Terminal Aerodrome Forecast
Issued by NWS

Home | Current Version | Previous Version | Text Only | Print | Product List | Glossary On
Versions: 1 2 3 4 5 6 7 8 9 10 11 12
000
FTUS41 KBTV 241126
TAFMSS
TAF
KMSS 241126Z 2412/2512 23014G22KT P6SM SCT120
     FM241600 24016G26KT P6SM SCT120
     FM250100 22010KT P6SM SCT250
     FM250600 22008KT P6SM BKN150
     FM250900 22007KT P6SM VCSH SCT050 OVC080=

USA.gov is the U.S. government's official web portal to all federal, state and local government web resources and services.